This demonstration page uses our WeatherBlox Daily Observations layout. Learn more.

Left ArrowRight Arrow

34.74481, -87.66753

Hourly Observations for April 30, 2017

Temp ( °F °C ) Dew Point ( °F °C ) Humidity (%) Winds ( mph kmh ) Pressure ( in mb ) Visibility ( mi km ) Precip ( " mm )
12:53 am 00:53 Mostly Clear 76 24.4 64 17.8 67 67 S 16 26 29.93 1013 10 16 0.00 0.00
1:53 am 01:53 Partly Cloudy 74 23.3 65 18.3 74 74 SE 15 24 29.89 1012 10 16 0.00 0.00
2:27 am 02:27 Mostly Cloudy 74 23.3 65 18.3 74 74 S 14 22 29.88 1012 10 16 0.00 0.00
2:53 am 02:53 Mostly Cloudy 74 23.3 65 18.3 74 74 SSE 14 22 29.88 1012 10 16 0.00 0.00
3:30 am 03:30 Partly Cloudy 73 22.8 65 18.3 76 76 SSE 13 20 29.85 1011 10 16 0.00 0.00
3:53 am 03:53 Clear 73 22.8 65 18.3 76 76 SSE 12 19 29.85 1011 10 16 0.00 0.00
4:53 am 04:53 Partly Cloudy 72 22.2 65 18.3 79 79 SE 7 11 29.84 1011 10 16 0.00 0.00
5:53 am 05:53 Partly Cloudy 72 22.2 65 18.3 79 79 S 6 9 29.89 1012 10 16 0.00 0.00
6:53 am 06:53 Partly Cloudy 72 22.2 66 18.9 82 82 SSE 10 17 29.91 1013 10 16 0.00 0.00
7:53 am 07:53 Mostly Cloudy 74 23.3 66 18.9 76 76 SSE 9 15 29.93 1013 10 16 0.00 0.00
8:53 am 08:53 Cloudy 75 23.9 65 18.3 71 71 SSE 15 24 29.92 1013 10 16 0.00 0.00
9:53 am 09:53 Mostly Cloudy 76 24.4 65 18.3 69 69 SSE 14 22 29.91 1013 10 16 0.00 0.00
10:53 am 10:53 Mostly Cloudy 79 26.1 66 18.9 65 65 S 18 30 29.91 1013 10 16 0.00 0.00
11:53 am 11:53 Mostly Cloudy 78 25.6 65 18.3 64 64 S 16 26 29.89 1012 10 16 0.00 0.00
12:53 pm 12:53 Mostly Cloudy 79 26.1 65 18.3 62 62 S 17 28 29.87 1012 10 16 0.00 0.00
1:24 pm 13:24 Cloudy with Heavy Rain 75 23.9 66 18.9 74 74 WSW 12 19 29.88 1012 2 3 0.11 2.79
1:30 pm 13:30 Cloudy with Strong Thunderstorms 73 22.8 67 19.4 81 81 VRB 7 11 29.85 1011 1 1 0.21 5.33
1:37 pm 13:37 Cloudy with Thunderstorms 72 22.2 65 18.3 79 79 SSE 15 24 29.85 1011 2 3 0.23 5.84
1:39 pm 13:39 Cloudy with Thunderstorms 71 21.7 64 17.8 79 79 SSE 13 20 29.85 1011 4 6 0.23 5.84
1:53 pm 13:53 Cloudy with Nearby Thunderstorms 71 21.7 65 18.3 81 81 S 8 13 29.86 1011 10 16 0.24 6.10
2:27 pm 14:27 Mostly Cloudy 70 21.1 64 17.8 82 82 S 12 19 29.85 1011 10 16 0.02 0.51
2:53 pm 14:53 Partly Cloudy 68 20 64 17.8 87 87 SE 14 22 29.81 1010 10 16 0.02 0.51
3:53 pm 15:53 Mostly Cloudy 69 20.6 63 17.2 81 81 SSE 17 28 29.83 1010 10 16 0.00 0.00
4:53 pm 16:53 Mostly Cloudy 68 20 63 17.2 84 84 SE 20 31 29.77 1008 10 16 0.00 0.00
5:53 pm 17:53 Mostly Cloudy 68 20 63 17.2 84 84 SSE 15 24 29.78 1009 10 16 0.00 0.00
6:53 pm 18:53 Cloudy 69 20.6 62 16.7 78 78 S 9 15 29.79 1009 10 16 0.00 0.00
7:53 pm 19:53 Cloudy 68 20 62 16.7 81 81 S 12 19 29.80 1009 10 16 0.01 0.25
8:01 pm 20:01 Cloudy 68 20 62 16.7 81 81 S 12 19 29.83 1010 10 16 0.00 0.00
8:53 pm 20:53 Cloudy 69 20.6 62 16.7 78 78 S 10 17 29.80 1009 10 16 0.00 0.00
9:51 pm 21:51 Cloudy with Nearby Thunderstorms 70 21 63 17 78 78 S 14 22 29.83 1010 10 16 0.00 0.00
9:53 pm 21:53 Cloudy with Nearby Thunderstorms 68 20 62 16.7 81 81 S 14 22 29.81 1010 10 16 0.00 0.00
10:01 pm 22:01 Cloudy with Thunderstorms 68 20 63 17.2 84 84 S 14 22 29.80 1009 7 11 0.03 0.76
10:18 pm 22:18 Cloudy with Nearby Thunderstorms 67 19.4 63 17.2 87 87 S 15 24 29.80 1009 9 14 0.05 1.27
10:30 pm 22:30 Cloudy with Light Rain 67 19.4 63 17.2 87 87 S 12 19 29.80 1009 10 16 0.05 1.27
10:45 pm 22:45 Cloudy with Light Rain 67 19.4 63 17.2 87 87 SSE 14 22 29.80 1009 8 13 0.07 1.78
10:53 pm 22:53 Cloudy with Heavy Rain 67 19.4 63 17.2 87 87 S 13 20 29.79 1009 3 4 0.17 4.32
10:57 pm 22:57 Cloudy with Heavy Rain 67 19.4 63 17.2 87 87 S 13 20 29.83 1010 3 5 0.00 0.03
11:53 pm 23:53 Cloudy with Light Rain 67 19.4 64 17.8 91 91 SSW 10 17 29.79 1009 8 13 0.04 1.02

Powered by AerisWeather